Weather History for Biloxi, MS

Change the Weather History Date:

Saturday, February 16, 2013

  Actual Average Record
Temperature  
Mean Temperature 46 °F -  
Max Temperature 53 °F 64 °F 77 °F (2000)
Min Temperature 39 °F 49 °F 26 °F (2007)
Degree Days  
Heating Degree Days 18    
Moisture  
Dew Point 26 °F    
Average Humidity 44    
Maximum Humidity 66    
Minimum Humidity 24    
Precipitation  
Precipitation 0.00 in - - ()
Sea Level Pressure  
Sea Level Pressure 30.21 in    
Wind  
Wind Speed 8 mph (NNW)    
Max Wind Speed 20 mph    
Max Gust Speed 29 mph    
Visibility 10 miles    
Events Rain    
Averages and records for this station are not official NWS values.
T = Trace of Precipitation, MM = Missing Value Source: NWS Daily Summary

Daily Weather History Graph

Daily Weather History Graph

Search for Another Location

Airport:

Trip Planner

Search our weather history database for the weather conditions in past years. The results will help you decide how hot, cold, wet, or windy it might be!

Date:

Astronomy

Feb. 16, 2013 Rise Set
Actual Time 6:34 AM CST 5:45 PM CST
Civil Twilight 6:10 AM CST 6:09 PM CST
Nautical Twilight 5:42 AM CST 6:37 PM CST
Astronomical Twilight 5:14 AM CST 7:05 PM CST
Moon 10:18 AM CST (2/16) No Moon Set
Length of Visible Light 11h 59m
Length of Day
11h 10m
Waxing Crescent, 39% of the Moon is Illuminated
Feb 16
Waxing Crescent
Feb 17
First Quarter
Feb 25
Full
Mar 4
Last Quarter
Mar 11
New

Hourly Weather History & Observations

Time (CST) Temp. Windchill Dew Point Humidity Pressure Visibility Wind Dir Wind Speed Gust Speed Precip Events Conditions
12:58 AM 50.9 °F - 39.4 °F 65% 30.13 in 10.0 mi Variable 5.8 mph - N/A   Mostly Cloudy
1:58 AM 50.0 °F - 38.7 °F 65% 30.13 in 10.0 mi Variable 5.8 mph - N/A   Scattered Clouds
2:58 AM 49.5 °F - 37.9 °F 65% 30.13 in 10.0 mi Variable 3.5 mph - N/A   Overcast
3:58 AM 49.3 °F - 37.4 °F 64% 30.14 in 10.0 mi NW 4.6 mph - N/A   Overcast
4:35 AM 48.2 °F - 35.6 °F 62% 30.14 in 10.0 mi Variable 4.6 mph - N/A Rain Light Rain
4:46 AM 48.2 °F - 37.4 °F 66% 30.15 in 10.0 mi Variable 5.8 mph - N/A   Mostly Cloudy
4:58 AM 48.7 °F - 36.0 °F 61% 30.16 in 10.0 mi Variable 5.8 mph - 0.00 in   Mostly Cloudy
5:58 AM 47.7 °F - 34.5 °F 60% 30.18 in 10.0 mi Variable 5.8 mph - N/A   Scattered Clouds
6:58 AM 45.5 °F 42.5 °F 33.3 °F 62% 30.20 in 10.0 mi Variable 5.8 mph - N/A   Clear
7:58 AM 46.4 °F 42.9 °F 32.9 °F 59% 30.23 in 10.0 mi Variable 6.9 mph - N/A   Clear
8:58 AM 48.4 °F - 29.1 °F 47% 30.25 in 10.0 mi Variable 6.9 mph - N/A   Clear
9:58 AM 49.6 °F - 25.3 °F 39% 30.25 in 10.0 mi NW 9.2 mph 17.3 mph N/A   Clear
10:58 AM 50.5 °F - 24.1 °F 36% 30.26 in 10.0 mi NW 17.3 mph 25.3 mph N/A   Clear
11:58 AM 51.6 °F - 22.3 °F 32% 30.22 in 10.0 mi NW 16.1 mph 21.9 mph N/A   Clear
12:29 PM 51.8 °F - 23.0 °F 33% 30.20 in 10.0 mi NW 15.0 mph 23.0 mph N/A   Clear
12:58 PM 52.9 °F - 19.2 °F 27% 30.20 in 10.0 mi North 18.4 mph 25.3 mph N/A   Clear
1:58 PM 53.6 °F - 18.9 °F 26% 30.18 in 10.0 mi NW 13.8 mph 21.9 mph N/A   Clear
2:58 PM 53.1 °F - 18.3 °F 26% 30.18 in 10.0 mi NNW 17.3 mph 28.8 mph N/A   Clear
3:44 PM 53.6 °F - 17.6 °F 24% 30.18 in 10.0 mi North 19.6 mph 24.2 mph N/A   Clear
3:58 PM 52.2 °F - 16.5 °F 24% 30.19 in 10.0 mi NNW 15.0 mph 19.6 mph N/A   Clear
3:59 PM 51.8 °F - 17.6 °F 26% 30.18 in 10.0 mi NW 15.0 mph 23.0 mph N/A   Clear
4:58 PM 51.1 °F - 17.8 °F 27% 30.20 in 10.0 mi NNW 16.1 mph 23.0 mph N/A   Clear
5:58 PM 48.6 °F - 18.7 °F 31% 30.22 in 10.0 mi NW 11.5 mph - N/A   Clear
6:58 PM 46.6 °F - 17.4 °F 31% 30.25 in 10.0 mi NNW 11.5 mph - N/A   Clear
7:58 PM 45.0 °F 40.6 °F 18.9 °F 35% 30.28 in 10.0 mi NNW 8.1 mph - N/A   Clear
8:58 PM 43.3 °F 40.7 °F 19.8 °F 39% 30.29 in 10.0 mi NW 4.6 mph - N/A   Clear
9:58 PM 41.9 °F 39.0 °F 22.8 °F 47% 30.31 in 10.0 mi North 4.6 mph - N/A   Clear
10:58 PM 40.1 °F 36.9 °F 23.2 °F 51% 30.31 in 10.0 mi NNE 4.6 mph - N/A   Clear
11:58 PM 39.2 °F 35.9 °F 22.1 °F 50% 30.31 in 10.0 mi NNE 4.6 mph - N/A   Clear